Location: Anglesea
(53.2500°N, 4.3333°W)
Time: 12:09:42
(UTC+00:00)

Daily predictions for brighter satellites

Satellite Brightness Start Highest point End
(mag) Time Altitude Azimuth Time Altitude Azimuth Time Altitude Azimuth
NOSS 0 Rocket 4.1 17:05:37 10° NNW 17:11:45 53° NE 17:17:49 10° SE
COSMOS 2428 2.7 17:08:03 10° NNW 17:13:50 73° NE 17:19:34 10° SE
ATLAS CENTAUR R/B 3.0 17:11:44 10° NW 17:14:59 20° N 17:18:04 10° ENE
Iridium 4 Rocket 3.4 17:11:08 10° SSW 17:15:15 66° W 17:19:32 10° N
Okean O Rocket 2.4 17:11:19 10° S 17:15:41 59° WSW 17:20:07 10° NNW
NOSS 2-1 (E) 4.5 17:14:58 10° NW 17:19:26 43° NNE 17:25:30 10° ESE
Envisat 3.2 17:18:20 10° SE 17:23:14 51° ENE 17:28:10 10° N
Cosmos 1048 Rocket 3.9 17:20:53 10° NNW 17:26:03 72° ENE 17:31:10 10° SSE
Alouette 2 Rocket 4.0 17:23:24 10° N 17:27:43 69° ENE 17:34:10 10° SSE
H-2A R/B 4.4 17:27:38 10° N 17:30:56 21° WNW 17:34:16 10° WSW
CZ-4 R/B 2.3 17:28:30 10° ESE 17:31:58 28° ENE 17:35:30 10° N
Cosmos 2228 4.4 17:29:28 10° NNW 17:33:37 44° W 17:37:42 10° SSW
Cosmos 372 Rocket 4.2 17:29:46 10° S 17:34:42 50° ESE 17:39:43 10° NE
Starlink D 4.5 17:33:04 10° SSW 17:35:29 22° SSE 17:37:48 11° E
Cosmos 1607 4.5 17:30:03 10° S 17:35:43 41° ESE 17:41:26 10° NE
Starlink S 4.4 17:34:28 10° SSW 17:36:54 23° SSE 17:39:11 11° E
SJ 16-02 2.2 17:33:11 10° SW 17:37:30 50° WNW 17:41:50 10° NNE
Starlink C 4.4 17:35:49 10° SSW 17:38:17 23° SSE 17:40:31 11° E
CZ-4B R/B 3.1 17:36:29 10° N 17:39:14 29° WNW 17:41:57 10° SW
Starlink E 4.4 17:37:14 10° SSW 17:39:43 24° SSE 17:41:54 12° E
Starlink J 4.3 17:38:39 10° SSW 17:41:08 24° SSE 17:43:17 12° E
Starlink V 4.3 17:40:02 10° SSW 17:42:33 25° SSE 17:44:39 13° E
Starlink H 4.3 17:41:27 10° SSW 17:44:00 25° SSE 17:46:03 13° E
Starlink F 4.2 17:42:53 10° SSW 17:45:27 26° SSE 17:47:28 14° E
Starlink G 4.2 17:44:19 10° SSW 17:46:53 26° SSE 17:48:51 14° E
Meteor 2-10 Rocket 4.4 17:42:46 10° N 17:47:26 28° ENE 17:51:55 10° ESE
Starlink L 4.2 17:45:44 10° SSW 17:48:20 27° SSE 17:50:15 14° E
SKYMED 2 4.5 17:45:04 10° NNE 17:48:52 28° E 17:52:38 10° SSE
Starlink A 4.2 17:47:10 10° SSW 17:49:47 27° SSE 17:51:40 15° E
Starlink R 4.1 17:48:37 10° SSW 17:51:15 28° SSE 17:53:05 16° E
Starlink K 4.1 17:50:01 10° SSW 17:52:40 28° SSE 17:54:28 16° E
Starlink M 4.1 17:51:25 10° SSW 17:54:05 29° SSE 17:55:49 17° E
Cosmos 2082 Rocket 4.1 17:50:48 10° WNW 17:54:47 19° NNW 17:58:45 10° NNE
Cosmos 1892 Rocket 4.2 17:52:23 10° SSW 17:56:48 58° WNW 18:01:14 10° N
SMAP 3.8 17:53:03 10° S 17:57:38 57° W 18:02:15 10° NNW
Cosmos 1689 Rocket 4.0 17:55:12 10° N 17:57:49 28° WNW 18:00:25 10° SW
Cosmos 1674 3.4 17:54:22 10° SSW 17:58:01 55° WNW 18:01:42 10° N
USA 267 3.3 17:54:02 14° ENE 17:59:54 89° SSE 18:06:28 10° WSW
Cosmos 1812 Rocket 3.5 17:56:18 10° N 18:00:47 71° ENE 18:05:14 10° SSE
CZ-2D R/B 4.0 17:58:31 10° SE 18:01:52 29° ENE 18:05:15 10° N
ATLAS CENTAUR R/B 3.8 17:56:31 10° SW 18:02:00 79° SE 18:15:08 15° ENE
Cosmos 494 Rocket 3.9 17:56:55 10° NNW 18:02:05 81° ENE 18:07:12 10° SSE
Cosmos 2237 Rocket 2.1 17:56:25 10° NNW 18:02:05 70° NE 18:07:42 10° SE
Cosmos 2298 Rocket 4.0 17:56:55 10° SSW 18:02:13 82° ESE 18:07:35 10° NNE
Cosmos 2333 Rocket 3.1 17:57:01 10° NW 18:02:35 53° WSW 18:08:06 10° S
Cosmos 2184 Rocket 4.0 17:57:32 10° S 18:03:44 89° E 18:09:56 10° N
Cosmos 1300 2.7 18:00:12 10° NNW 18:04:02 86° W 18:07:51 10° S
Ariane Rocket 3.9 18:02:38 10° ESE 18:06:51 27° ENE 18:11:05 10° N
Cosmos 2154 Rocket 4.0 18:05:33 10° S 18:11:46 69° E 18:17:59 10° NNE
YAOGAN 1 2.6 18:08:53 10° SE 18:13:05 53° ENE 18:17:19 10° N
Cosmos 1340 Rocket 2.7 18:09:34 10° NNW 18:13:32 88° W 18:17:31 10° S
Meteor 1-24 Rocket 3.7 18:10:03 10° SSW 18:15:22 81° WNW 18:20:50 10° NNE
H-2A R/B 3.2 18:15:09 20° ENE 18:15:28 20° NE 18:19:05 10° N
Cosmos-2242 3.3 18:12:56 10° N 18:17:08 44° ENE 18:21:15 10° SE
Starlink AR 3.2 18:15:02 10° SW 18:17:24 36° SSE 18:17:52 32° SE
NOSS 2-1 (C) 4.1 18:14:59 10° NW 18:19:51 81° NE 18:26:40 10° SE
Cosmos 1455 2.8 18:16:30 10° N 18:20:03 34° ENE 18:23:34 10° SE
Cosmos 2251 Rocket 4.1 18:16:08 10° NNW 18:21:01 36° NE 18:24:10 19° ESE
Cosmos 1242 Rocket 2.5 18:17:41 10° SSW 18:21:11 79° WNW 18:24:47 10° NNE
CSL-04 Rocket 3.7 18:16:06 10° SSE 18:21:32 65° ENE 18:27:03 10° NNW
Cosmos 1271 Rocket 3.1 18:18:58 10° SSW 18:22:40 62° WNW 18:26:26 10° N
SL-16 R/B 2.5 18:17:16 10° NNW 18:22:45 47° NE 18:27:14 15° ESE
NOSS 2-1 (D) 4.2 18:18:47 10° NW 18:23:40 84° NE 18:30:32 10° SE
SL-14 R/B 3.4 18:19:46 10° SSW 18:23:47 79° WNW 18:27:47 10° N
Cosmos 1626 2.1 18:21:10 10° SSW 18:24:52 83° WNW 18:28:37 10° N
Meteor 2-5 Rocket 4.5 18:20:59 10° SSW 18:26:24 53° WNW 18:31:55 10° N
YAOGAN 6 3.2 18:23:10 10° S 18:26:50 61° W 18:30:29 10° NNW
Cosmos 1610 Rocket 4.4 18:21:00 10° S 18:27:09 90° W 18:33:22 10° N
ATLAS 5 CENTAUR R/B 2.3 18:23:05 10° WSW 18:27:24 52° NNW 18:30:44 20° NE
USA 32 4.0 18:26:03 10° S 18:31:11 62° E 18:36:22 10° NNE
Cosmos 2219 3.5 18:26:10 10° S 18:31:27 44° ESE 18:34:25 24° NE
Cosmos 1602 Rocket 3.6 18:27:29 10° SSW 18:31:54 84° WNW 18:36:17 10° N
CZ-2C R/B 4.3 18:33:09 24° NE 18:33:09 24° NE 18:37:29 10° N
Cosmos 1295 Rocket 4.4 18:29:08 10° S 18:35:27 78° E 18:41:47 10° NNE
Cosmos 2150 Rocket 4.3 18:30:28 10° SW 18:35:36 64° WNW 18:40:36 11° NNE
COSMO-SKYMED 1 2.4 18:32:50 10° NNE 18:37:13 76° ESE 18:41:33 10° S
Starlink AQ 3.0 18:34:58 10° WSW 18:37:50 50° SSE 18:38:00 49° SE
CZ-4C R/B 3.8 18:31:40 10° NW 18:38:28 51° SW 18:46:14 10° SSE
Cosmos 1939 Rocket 2.7 18:35:24 10° SSE 18:39:17 67° ENE 18:43:14 10° N
Starlink AS 3.0 18:37:11 10° WSW 18:40:03 52° SSE 18:40:08 51° SSE
Starlink BA 3.0 18:37:25 10° WSW 18:40:16 52° SSE 18:40:21 51° SSE
Cosmos 2366 rocket 4.3 18:34:35 10° SSE 18:40:21 42° E 18:46:12 10° NNE
Starlink AU 3.0 18:37:38 10° WSW 18:40:30 52° SSE 18:40:34 52° SSE
Starlink AT 3.0 18:37:52 10° WSW 18:40:43 52° SSE 18:40:47 52° SSE
Starlink BB 3.0 18:38:06 10° WSW 18:40:57 52° SSE 18:41:00 52° SSE
Starlink BC 3.0 18:38:19 10° WSW 18:41:10 52° SSE 18:41:13 52° SSE
Starlink BK 3.0 18:38:32 10° WSW 18:41:24 52° SSE 18:41:26 52° SSE
Starlink AY 3.0 18:38:45 10° WSW 18:41:37 52° SSE 18:41:39 52° SSE
Starlink AW 3.0 18:38:59 10° WSW 18:41:50 53° SSE 18:41:51 53° SSE
Starlink BJ 3.0 18:39:11 10° WSW 18:42:03 53° SSE 18:42:04 53° SSE
Starlink AV 3.0 18:39:24 10° WSW 18:42:16 53° SSE 18:42:16 53° SSE
Starlink BD 3.0 18:39:38 10° WSW 18:42:29 53° SSE 18:42:29 53° SSE
Starlink BE 3.0 18:39:48 10° WSW 18:42:39 53° SSE 18:42:39 53° SSE
Starlink BM 3.0 18:40:03 10° WSW 18:42:54 53° SSE 18:42:54 53° SSE
Starlink AX 3.0 18:40:17 10° WSW 18:43:07 53° SSE 18:43:07 53° SSE
Starlink BH 3.0 18:40:31 10° WSW 18:43:21 53° SSE 18:43:21 53° SSE
Cosmos 1953 Rocket 4.0 18:39:24 10° SSE 18:43:35 40° E 18:44:04 38° ENE
Starlink AZ 3.0 18:40:43 10° WSW 18:43:32 54° SSE 18:43:32 54° SSE
Starlink BG 3.0 18:40:56 10° WSW 18:43:46 54° SSE 18:43:46 54° SSE
Starlink BF 3.0 18:41:09 10° WSW 18:43:58 54° SSE 18:43:58 54° SSE
Cosmos 1980 4.2 18:38:28 10° NW 18:44:06 62° WSW 18:49:42 10° SSE
Starlink BL 3.0 18:41:21 10° WSW 18:44:10 54° SSE 18:44:10 54° SSE
Starlink AH 3.0 18:41:35 10° WSW 18:44:23 54° S 18:44:23 54° S
Starlink AC 3.0 18:41:49 10° WSW 18:44:37 54° S 18:44:37 54° S
Starlink X 3.0 18:42:03 10° WSW 18:44:49 54° S 18:44:49 54° S
Starlink AE 3.0 18:42:13 10° WSW 18:45:00 54° S 18:45:00 54° S
Starlink Z 3.0 18:42:31 10° WSW 18:45:17 54° S 18:45:17 54° S
Starlink AK 3.0 18:42:43 10° WSW 18:45:29 54° S 18:45:29 54° S
Starlink AL 3.0 18:42:56 10° WSW 18:45:41 54° S 18:45:41 54° S
Starlink AD 3.0 18:43:10 10° WSW 18:45:54 54° S 18:45:54 54° S
Starlink Y 3.0 18:43:37 10° WSW 18:46:20 54° S 18:46:20 54° S
Starlink AG 3.1 18:43:53 10° WSW 18:46:36 54° S 18:46:36 54° S
Cosmos 2297 Rocket 2.6 18:41:32 10° S 18:46:48 42° ESE 18:48:25 34° ENE
Starlink W 3.1 18:44:05 10° WSW 18:46:49 55° S 18:46:49 55° S
Starlink AJ 3.1 18:44:17 10° WSW 18:46:59 54° S 18:46:59 54° S
Cosmos 962 Rocket 4.4 18:41:25 10° S 18:47:32 80° E 18:53:44 10° NNE
Starlink AM 3.1 18:44:48 10° WSW 18:47:29 54° S 18:47:29 54° S
Starlink AP 3.1 18:44:58 10° WSW 18:47:39 54° S 18:47:39 54° S
Starlink AA 3.1 18:45:14 10° WSW 18:47:54 54° S 18:47:54 54° S
Starlink AF 3.1 18:45:24 10° WSW 18:48:04 54° S 18:48:04 54° S
Starlink AB 3.1 18:45:38 10° WSW 18:48:18 54° S 18:48:18 54° S
Cosmos 1758 Rocket 3.4 18:44:29 10° S 18:48:45 68° E 18:51:32 21° NNE
Starlink AN 3.1 18:45:52 10° WSW 18:48:31 54° S 18:48:31 54° S
Okean-O 4.3 18:45:39 10° SSW 18:49:44 35° W 18:53:50 10° NNW
Cosmos 1125 Rocket 3.6 18:46:23 10° SSW 18:51:35 79° WNW 18:55:37 18° NNE
ATLAS CENTAUR R/B 1.7 18:50:50 10° NW 18:54:50 43° NNE 18:54:50 43° NNE
SJ-11-01 4.4 18:56:12 44° E 18:56:58 48° ENE 19:01:32 10° N
Starlink T 3.5 18:55:05 10° WSW 18:57:26 48° SW 18:57:26 48° SW
Cosmos 2227 Rocket 2.4 18:53:32 10° S 18:58:54 46° ESE 18:59:59 41° E
Starlink N 3.5 18:56:19 10° WSW 18:58:38 47° SW 18:58:38 47° SW
NOAA 11 4.4 18:54:52 10° S 19:00:22 74° WSW 19:05:53 10° NNW
Cosmos 1727 Rocket 3.9 18:54:31 10° N 19:00:41 61° ENE 19:06:48 10° SSE
Starlink Q 3.6 18:57:52 10° WSW 19:00:07 46° SW 19:00:07 46° SW
Starlink P 3.7 18:59:12 10° WSW 19:01:25 44° SW 19:01:25 44° SW
Starlink U 3.8 19:00:32 10° WSW 19:02:43 43° SW 19:02:43 43° SW
Starlink B 3.9 19:01:55 10° WSW 19:04:02 42° SW 19:04:02 42° SW
CZ-4 R/B 2.8 19:03:03 10° SSW 19:06:51 39° W 19:10:47 10° NNW
Timation 2 Rocket 4.3 19:00:57 10° SW 19:07:04 65° NW 19:11:41 20° NNE
Starlink D 4.2 19:07:31 10° WSW 19:09:30 37° WSW 19:09:30 37° WSW
Cosmos 1943 4.0 19:06:45 10° NNW 19:11:24 32° NNE 19:11:24 32° NNE
Starlink S 4.2 19:08:57 10° WSW 19:10:53 36° WSW 19:10:53 36° WSW
Starlink C 4.3 19:10:20 10° WSW 19:12:13 35° WSW 19:12:13 35° WSW
Cosmos 1825 Rocket 3.6 19:10:10 10° SSW 19:14:31 78° WNW 19:16:38 30° N
Starlink E 4.4 19:11:47 10° WSW 19:13:37 33° WSW 19:13:37 33° WSW
Cosmos 2341 Rocket 4.2 19:09:08 10° SSW 19:15:31 75° WNW 19:21:54 10° N
Starlink J 4.5 19:13:14 10° WSW 19:15:01 32° WSW 19:15:01 32° WSW
SJ 16-02 4.1 19:15:33 10° WNW 19:17:12 12° NW 19:18:52 10° NNW
ARGOS 3.5 19:18:09 46° NE 19:18:09 46° NE 19:22:37 10° N
SL-8 Rocket 3.9 19:11:10 10° S 19:17:29 88° E 19:23:49 10° N
ADEOS Rocket 3.2 19:15:19 10° NNE 19:21:38 61° ESE 19:28:37 10° S
Cosmos 1607 4.3 19:16:45 10° WSW 19:22:49 60° NW 19:25:35 33° NNE
Meteor 2-10 Rocket 4.1 19:24:34 10° NNW 19:29:55 57° W 19:35:00 10° S
Meteor 2-2 Rocket 4.5 19:26:21 10° N 19:31:46 55° NE 19:31:46 55° NE
Cosmos 2082 Rocket 4.4 19:38:49 10° NNW 19:41:16 13° N 19:42:03 12° N
USA 267 3.4 19:41:23 52° NE 19:42:50 66° N 19:49:18 10° W
Cosmos 724 4.2 19:38:19 10° SW 19:44:17 86° NW 19:44:57 72° NNE
Ariane Rocket 3.4 19:40:29 10° S 19:45:30 60° WSW 19:50:33 10° NNW
Cosmos 2237 Rocket 4.3 19:41:08 10° NW 19:45:41 26° WSW 19:50:12 10° SSW
Meteor 1-27 4.1 19:40:15 10° NNW 19:45:52 89° WSW 19:46:16 78° S
SL-08 R/B 4.4 19:40:38 10° S 19:46:56 83° E 19:53:23 10° NNE
Cosmos 2218 Rocket 4.2 19:42:19 10° SSW 19:48:39 70° WNW 19:55:05 10° N
H-2A R/B 2.6 19:55:45 48° NNW 19:55:45 48° NNW 19:59:25 10° NNW
Cosmos 1455 4.4 19:52:22 10° NNW 19:55:33 25° W 19:58:42 10° SW
Cosmos 2251 Rocket 4.4 19:58:25 10° NW 20:03:29 48° WSW 20:04:45 40° SW
SL-16 R/B 3.3 20:01:33 10° NW 20:06:52 42° WSW 20:09:12 28° SSW
CZ-2C R/B 4.0 20:14:12 44° NNW 20:14:12 44° NNW 20:18:02 10° NNW
ATLAS 5 CENTAUR R/B 3.5 20:08:58 10° WNW 20:12:16 26° NNW 20:12:16 26° NNW
Cosmos 2219 4.1 20:10:17 10° WSW 20:15:39 44° NW 20:16:23 42° NNW
ATLAS 5 CENTAUR R/B 3.6 20:18:43 10° NW 20:23:18 80° SW 20:24:36 66° SSE
Cosmos 2297 Rocket 3.1 20:25:24 10° WSW 20:30:17 45° WNW 20:30:17 45° WNW
ATLAS CENTAUR R/B 4.1 20:30:02 10° WNW 20:31:03 16° WNW 20:31:03 16° WNW
Cosmos 2227 Rocket 3.4 20:37:40 10° WSW 20:41:52 38° WNW 20:41:52 38° WNW
ADEOS Rocket 4.5 21:01:44 12° N 21:06:56 36° WNW 21:13:05 10° WSW
